Retour au catalogue

SPARTAN

ActifSciencePO
NORAD 48964·PAYLOAD·🇧🇬 Bulgaria

Lancé Jun 30, 2021 depuis Cape Canaveral Space Force Station

Loading…

Prochains Passages (prochaines 24 heures)

TLE

FraisSource: Space-Track

Époque: Sep 13, 2026, 12:58 UTC

1 48964U 21059CP  26256.54062044  .00482381  11813-3  56158-3 0  9995
2 48964  97.6587 108.5303 0001839 237.0489 123.0617 16.08830937291972

Suivez SPARTAN en temps réel avec AllMySat

Download on the App Store